星链-32040 (STARLINK-32040 )

导读

STARLINK-32040是美国SpaceX星链(Starlink)卫星互联网项目中的量产低轨通信卫星,于2024年6月23日发射。它属于星链星座组网卫星,采用平板设计搭配太阳电池阵,搭载Ku/Ka波段通信载荷,配备氪工质霍尔推进器,具备自主避撞能力,旨在为全球偏远地区提供低延迟高速宽带互联网服务,服役寿命约为5到7年,退役后会主动离轨在大气层中完全烧毁,避免产生太空垃圾。

Basic Information
目录编号:
60109
目录名称:
STARLINK-32040
国际标识:
2024-117U
轨道中心:
EARTH
卫星名称:
星链-32040
卫星全名:
星链-32040 (STARLINK-32040 )
卫星状态:
在轨 (已飞行803 天)
发射日期:
2024-06-23 UTC
国别 :
美国 (US)
星等 :
--
Orbit Information
数据来源 国际轨道数据
星历时间: 2026-09-03T11:07:11+0800
1天前
查看轨道信息
半长轴: 6840.871km
偏心率: 0.0001209
轨道倾角: 53.160°
近地点辐角 83.363°
升交点赤经 290.791°
平近点角 276.751°
近地点: 461.906km
远地点: 463.562km
周期: 93.848分钟
每日圈数: 15.343899
Detailed Information
固有亮度:
5
最大亮度:
1.5
卫星平台:
Starlink v2.0 mini
覆盖范围:
全球
运营商:
太空探索技术公司
运营商所在国:
美国
制造商(研发单位):
太空探索技术公司
制造商所在国:
美国
使用方式:
暂无
Satellite Introduction
星链(Starlink)计划是由太空探索技术公司(SpaceX)提出的一个巨型低轨卫星互联网星座项目,计划在2019年至2024年间在太空搭建由约1.2万颗卫星组成的“星链”网络,其中1584颗将部署在地球上空550千米处的近地轨道,并从2020年开始工作。该卫星仍在工作。
2D Orbit Map
3D Orbit Map
Orbit Altitude Analysis Chart
Orbit Inclination Analysis Chart
Orbit Comprehensive Analysis Chart
View Comprehensive Chart
Conjunction Data List
Event ID Objects TCA Miss Dist (km) Collision Risk Probability Collision Risk Index (CRI) Action
CDM_260904-082706-010906-953421
2026-09-04T
08:27:27+0000
0.673 km
远距离
2.767359E-5 中风险 0.64
CDM_260904-135506-010906-953421
2026-09-04T
13:55:43+0000
1.092 km
极远距离
5.453066E-6 低风险 0.5
CDM_260904-122106-010906-953421
2026-09-04T
12:21:56+0000
1.487 km
极远距离
2.008725E-6 低风险 0.41
CDM_260901-055206-010906-477422
2026-09-01T
05:52:59+0000
2.586 km
极远距离
1.453825E-6 低风险 0.38
CDM_260904-100106-010906-953421
2026-09-04T
10:01:14+0000
1.894 km
极远距离
1.043713E-6 低风险 0.35
CDM_260904-065306-010906-953421
2026-09-04T
06:53:39+0000
2.972 km
极远距离
4.886044E-7 极低风险 0.29